TIME,DELAY(SENSOR),PRES,T(CTD),SAL,OXYGEN,RAWTEMP,T(OPTODE),TCPHASE,FLUOR,BETA(BETA700),BETA(BETA412),BETA(BETA440),CDOM,C(CSC),ED(ED412.40),ED(ED444.00),ED(ED489.70),ED(ED554.30),LU(LU411.80),LU(LU443.40),LU(LU489.60),LU(LU554.10),COMP,TILTX,TILTX(TILTY),CHECK
1344634136,5752,497.0499877929687500,6.8376002311706540,34.2062988281250000,59.9496688842773440,592.5433959960938000,6.8248791694641110,51.3251609802246100,52,106,93,80,79,15340,2147748781,2147420342,2148002697,2147875712,2147632146,2147082358,2148235739,2147198838,557,5,13,18627
1344634263,5809,486.2999877929687500,6.9226999282836910,34.1934013366699200,67.7427062988281200,589.9533081054688000,6.9083328247070310,50.2640190124511700,51,106,90,81,80,15340,2147746468,2147420589,2148001472,2147875702,2147631259,2147075218,2148238921,2147204864,1074,4,13,2377
1344634393,5809,475.1600036621094000,7.0295000076293945,34.1837005615234400,71.2622070312500000,586.8372802734375000,7.0086522102355960,49.7775497436523440,52,105,88,80,80,15340,2147751158,2147418861,2148006774,2147876854,2147630646,2147078829,2148238253,2147199442,1388,4,13,24688
1344634520,5809,464.7799987792969000,7.1753997802734375,34.1785011291503900,77.0549316406250000,582.2089843750000000,7.1574950218200680,49.0025291442871100,52,106,90,80,79,15337,2147751177,2147420489,2148000740,2147874980,2147628150,2147082523,2148235044,2147201389,1853,4,13,59082
1344634661,5810,453.9299926757812500,7.3719000816345215,34.1803016662597660,80.0149688720703100,576.3060913085938000,7.3470458984375000,48.5602416992187500,52,106,91,80,79,15337,2147747364,2147420708,2148001627,2147873746,2147628315,2147087250,2148234925,2147204306,763,4,13,48172
1344634812,5809,443.1600036621094000,7.5384001731872560,34.1753005981445300,84.9927215576171900,570.9409790039062000,7.5190558433532715,47.8975105285644500,51,105,88,80,78,15339,2147746825,2147420361,2148001782,2147871341,2147626642,2147084754,2148233819,2147204425,6,5,13,26487
1344634997,5812,428.6000061035156000,7.7417998313903810,34.1693000793457000,93.0870971679687500,564.6895141601562000,7.7191700935363770,46.8886604309082000,52,105,90,81,79,15338,2147747346,2147421577,2148001243,2147873892,2147624832,2147084818,2148237842,2147205302,2965,4,13,32732
1344635112,5806,417.1700134277344000,7.9065999984741210,34.1604003906250000,101.8526000976562500,559.4249267578125000,7.8874258995056150,45.8595581054687500,51,106,87,81,78,15336,2147750619,2147422253,2148003465,2147874980,2147626313,2147080850,2148228781,2147208777,234,4,13,17543
1344635229,5809,405.2300109863281000,8.0874996185302730,34.1557006835937500,107.6996994018554700,553.5839843750000000,8.0738296508789060,45.1583900451660160,50,107,89,79,77,15337,2147742592,2147419392,2148002651,2147871396,2147626112,2147089371,2148232649,2147204470,3400,4,13,34453
1344635344,5809,393.5499877929687500,8.3295001983642580,34.1498985290527340,117.5504989624023400,546.2739868164062000,8.3067150115966800,44.0567893981933600,51,107,87,80,77,15335,2147743753,2147423140,2148001636,2147873691,2147624082,2147090340,2148230464,2147206180,2859,4,13,480
1344635447,5806,383.2799987792969000,8.3845996856689450,34.1212005615234400,129.5489044189453000,544.2473144531250000,8.3712072372436520,42.8969688415527340,50,104,86,79,75,15338,2147743835,2147423533,2148001865,2147872713,2147623378,2147090669,2148228653,2147203264,695,4,13,19400
1344635564,5810,372.8599853515625000,8.6548004150390620,34.1104011535644500,146.7935943603515600,535.5388183593750000,8.6479377746582030,41.2523612976074200,50,106,86,82,76,15340,2147744164,2147418093,2148002349,2147872822,2147623734,2147085184,2148232905,2147203977,1194,4,13,634
1344635715,5806,361.5199890136719000,8.9583997726440430,34.1207008361816400,158.4008941650390600,525.4738159179688000,8.9670333862304690,40.1493301391601560,50,108,90,80,73,15339,2147740132,2147420324,2148001106,2147873261,2147619008,2147085824,2148230436,2147207917,1561,4,13,49207
1344635875,5812,350.7000122070312500,9.3336000442504880,34.1169013977050800,174.8540039062500000,514.0581054687500000,9.3280181884765620,38.7308387756347660,50,108,91,80,74,15340,2147741888,2147422006,2148004077,2147872512,2147616987,2147095643,2148226733,2147208137,1628,4,13,35494
1344636003,5810,339.7000122070312500,9.6005001068115230,34.1198997497558600,185.4371032714843800,505.4295043945312500,9.6002349853515620,37.8528594970703100,50,107,86,80,73,15340,2147738761,2147423104,2148006738,2147871899,2147617801,2147099446,2148224448,2147207552,2411,4,13,44728
1344636130,5806,327.9299926757812500,9.9303998947143550,34.1369018554687500,189.1558074951172000,495.1007995605469000,9.9253911972045900,37.4305381774902340,49,105,89,81,72,15339,2147739666,2147423497,2148010870,2147870070,2147613814,2147099812,2148225005,2147206619,2330,3,13,22527
1344636248,5807,316.7300109863281000,10.3774003982543950,34.1478004455566400,191.6497039794922000,480.8988952636719000,10.3712997436523440,37.0297012329101560,49,105,90,80,72,15340,2147739574,2147423689,2148016731,2147870930,2147612699,2147100900,2148227830,2147205650,1305,4,13,56385
1344636363,5808,306.0899963378906000,10.8259000778198240,34.1677017211914060,200.5429992675781200,466.3929138183594000,10.8254098892211910,36.2281417846679700,50,106,88,80,70,15339,2147736786,2147427529,2148022537,2147871862,2147609325,2147108397,2148228736,2147204598,1052,4,13,39002
1344636492,5811,295.3599853515625000,11.5092000961303710,34.1977005004882800,206.4723052978515600,445.1430969238281000,11.4883403778076170,35.5233497619628900,49,106,85,79,71,15340,2147734427,2147430326,2148032128,2147869686,2147605714,2147111570,2148230756,2147205485,121,4,14,31963
1344636631,5812,284.6199951171875000,12.0347995758056640,34.2276000976562500,210.1925964355468800,428.0762023925781000,12.0189399719238280,35.0320091247558600,48,106,93,81,69,15338,2147733650,2147434797,2148042386,2147869750,2147603245,2147119314,2148233408,2147207460,852,4,13,48226
1344636782,5807,273.8200073242187500,12.7446002960205080,34.2700004577636700,209.6031036376953000,405.3205871582031000,12.7241201400756840,34.7067184448242200,48,109,87,80,69,15338,2147730605,2147441216,2148066313,2147870902,2147599835,2147127515,2148244205,2147210322,182,4,13,57027
1344636917,5808,262.5700073242187500,13.1505002975463870,34.3042984008789060,211.1614074707031200,391.6164855957031000,13.1476497650146480,34.4037513732910160,49,105,89,81,68,15334,2147727149,2147455277,2148091108,2147871049,2147598317,2147141970,2148250048,2147214345,1096,4,13,52454
1344637020,5808,252.4400024414062500,13.4926004409790040,34.3292999267578100,210.5391998291015600,380.6159973144531000,13.4870500564575200,34.2707099914550800,48,106,91,80,68,15335,2147729737,2147469248,2148131008,2147873572,2147598134,2147150546,2148267675,2147215716,901,3,14,43389
1344637135,5809,241.4199981689453000,14.3114995956420900,34.3987007141113300,210.4396057128906200,355.5528869628906000,14.2586297988891600,33.8950805664062500,48,108,88,81,68,15335,2147734345,2147487725,2148176530,2147873206,2147598016,2147163565,2148289408,2147216146,695,4,14,10320
1344637265,5808,230.3200073242187500,15.0985002517700200,34.4628982543945300,209.5505065917968800,328.6495971679687500,15.0846099853515620,33.5442390441894500,49,105,88,80,69,15333,2147732708,2147526253,2148259830,2147871835,2147594285,2147189577,2148324096,2147219300,8,3,14,55139
1344637404,5808,220.2299957275390600,15.8965997695922850,34.5421981811523440,209.3860931396484400,301.6148986816406000,15.9127702713012700,33.1567001342773440,50,106,85,80,67,15330,2147740781,2147571401,2148351634,2147872969,2147596342,2147220571,2148369344,2147226176,3274,4,13,45491
1344637564,5808,206.5099945068359400,16.5639991760253900,34.6278991699218750,212.0534973144531200,280.5161132812500000,16.5581207275390620,32.7025413513183600,50,103,90,81,67,15328,2147764507,2147691008,2148573165,2147871981,2147600338,2147290934,2148471168,2147235062,1354,3,14,25399
1344637655,5806,196.2200012207031200,17.1812000274658200,34.7089996337890600,219.5543975830078000,259.4490051269531000,17.2019100189209000,31.9976005554199220,50,104,88,80,65,15324,2147805842,2147819081,2148806034,2147870518,2147613714,2147378294,2148585472,2147242550,1743,3,15,46263
1344637710,5811,190.3600006103515600,17.5685005187988280,34.7526016235351560,219.6546020507812500,247.3834991455078000,17.5704593658447270,31.8236694335937500,50,108,89,80,65,15324,2147837851,2147921737,2148981010,2147874898,2147624155,2147434980,2148666998,2147249837,1524,3,14,33554
1344637765,5808,184.6000061035156200,17.8110008239746100,34.7854003906250000,219.7906036376953000,237.3665924072265600,17.8763809204101560,31.6773605346679700,50,104,88,82,65,15324,2147884635,2148050121,2149187858,2147878153,2147645778,2147515273,2148768246,2147255497,1744,3,14,27247
1344637840,5808,177.3699951171875000,18.5258007049560550,34.8721008300781250,220.4170074462890600,216.2304992675781200,18.5218391418457030,31.3539009094238280,52,103,88,81,65,15322,2147963099,2148235209,2149477513,2147876452,2147677641,2147631488,2148910893,2147268013,2023,3,14,5936
1344637895,5808,172.9700012207031200,18.8701000213623050,34.9258995056152340,223.0977020263672000,205.3213043212890600,18.8550300598144530,31.0668296813964840,52,107,87,80,65,15319,2148031049,2148387538,2149702436,2147879369,2147704557,2147728813,2149029412,2147276736,2400,3,14,37056
1344637950,5808,168.6900024414062500,19.0345001220703120,34.9566001892089840,225.1049957275390600,198.1591033935547000,19.0738201141357420,30.8677291870117200,54,107,91,81,65,15318,2148115437,2148548937,2149964480,2147878436,2147740406,2147838683,2149165211,2147285275,2563,3,14,43949
1344638005,5812,164.5399932861328000,19.6000003814697270,35.0340995788574200,227.2893066406250000,181.1510009765625000,19.5935592651367200,30.5300197601318360,62,109,90,80,61,15305,2148198564,2148699328,2150181750,2147883154,2147782994,2147944685,2149278244,2147298148,2336,2,15,6100
1344638060,5807,160.8800048828125000,19.7619991302490230,35.0547981262207000,227.7651977539062500,172.4049072265625000,19.8609600067138670,30.3901405334472660,65,110,91,81,64,15304,2148313188,2148915264,2150510482,2147885650,2147835474,2148071277,2149427693,2147308425,1974,3,15,28573
1344638115,5804,157.2899932861328000,20.3491001129150400,35.1189994812011700,227.0350952148437500,157.8233032226562500,20.3070297241210940,30.2334499359130860,78,114,91,83,64,15285,2148423634,2149107794,2150793920,2147888457,2147883136,2148180534,2149557010,2147320155,2185,3,15,63529
1344638194,5808,152.7400054931640600,20.4706001281738280,35.1399993896484400,228.1481018066406200,152.7062988281250000,20.4636592864990230,30.1111698150634770,83,119,88,81,62,15285,2148597266,2149392877,2151212096,2147890770,2147960054,2148348809,2149752246,2147332297,1770,3,15,35772
1344638261,5811,149.2700042724609400,20.5312004089355470,35.1502990722656250,228.9884948730468800,150.7561035156250000,20.5233592987060550,30.0444908142089840,84,120,89,82,62,15284,2148793106,2149725787,2151707684,2147897901,2148054134,2148528896,2149971657,2147347858,1431,3,15,25048
1344638340,5810,145.1799926757812500,20.7000007629394530,35.1711997985839840,229.5570983886718800,145.2154998779297000,20.6930408477783200,29.9440307617187500,83,118,88,84,62,15276,2149062976,2150145810,2152292480,2147902171,2148176640,2148767744,2150242240,2147373257,1035,3,15,63544
1344638419,5806,141.2400054931640600,20.8076992034912100,35.1888999938964840,230.5328979492187500,141.5713958740234400,20.8046703338623050,29.8491497039794920,84,120,94,81,62,15270,2149380379,2150621211,2152970916,2147912630,2148327762,2149033956,2150553389,2147394706,929,2,15,14335
1344638501,5806,137.4499969482422000,21.0160007476806640,35.2122993469238300,231.2886047363281200,134.3524017333984400,21.0258903503417970,29.7189197540283200,92,121,92,83,60,15269,2149718637,2151091885,2153637622,2147921444,2148491968,2149300672,2150864219,2147420544,3268,2,16,7338
1344638592,5807,133.9700012207031200,21.2602996826171880,35.2500000000000000,231.9389953613281200,127.7988967895507800,21.2268390655517580,29.6027507781982420,94,128,90,84,61,15263,2150074102,2151593600,2154343634,2147934546,2148677376,2149594889,2151192493,2147445942,3250,3,15,36414
1344638707,5808,130.0899963378906200,21.4416007995605470,35.2715988159179700,230.5330047607422000,121.4670028686523400,21.4211006164550780,29.5882396697998050,96,122,88,83,61,15263,2150549293,2152266066,2155337106,2147949778,2148935378,2149991661,2151641700,2147483666,638,2,15,26733
1344638830,5809,125.4199981689453100,21.6401004791259770,35.2944984436035160,230.7698974609375000,114.8132019042968800,21.6253509521484380,29.4910507202148440,103,128,92,83,61,15231,2151272073,2153226861,2156732525,2147980626,2149320018,2150532096,2152257682,2147540470,230,3,15,58934
1344638921,5811,121.4800033569336000,21.9605007171630860,35.3350982666015600,232.5839996337890600,104.5839996337890600,21.9396190643310550,29.2731399536132800,127,129,92,83,61,15212,2151962852,2154173467,2158056256,2148014317,2149660022,2150966765,2152781037,2147582930,3142,2,15,50034
1344639012,5809,117.7600021362304700,22.0356998443603500,35.3478012084960940,235.0565032958984400,101.5150985717773400,22.0339698791503900,29.1173191070556640,137,134,93,84,61,15194,2152976182,2155615296,2160000950,2148060489,2150120320,2151556059,2153481920,2147649764,2212,2,15,46313
1344639105,5809,113.5599975585937500,22.1504993438720700,35.3574981689453100,237.3067932128906200,97.8470687866211000,22.1467800140380860,28.9661693572998050,140,138,92,85,61,15174,2154428900,2157661238,2162674230,2148124022,2150760173,2152386532,2154475986,2147742080,2351,2,16,38525
1344639196,5808,109.3300018310546900,22.1933002471923830,35.3610000610351560,238.6947937011718800,96.4583129882812500,22.1895008087158200,28.8845596313476560,151,135,93,86,61,15172,2156240000,2160186121,2165847689,2148209115,2151513700,2153347849,2155597449,2147851766,2210,2,15,20768
1344639275,5809,105.5599975585937500,22.2320995330810550,35.3396987915039060,239.3287048339843800,95.4068679809570300,22.2218494415283200,28.8423500061035160,156,139,93,85,62,15148,2158342390,2163037531,2169139840,2148310464,2152355812,2154394203,2156718628,2147974326,2179,3,15,44667
1344639366,5809,101.6699981689453100,22.4265003204345700,35.3305015563964840,241.2610931396484400,89.1119308471679700,22.4156093597412100,28.6748008728027340,156,136,91,85,61,15148,2161690340,2167624667,2174311835,2148454317,2153723181,2156181622,2158672941,2148171318,1518,2,16,31881
1344639448,5804,98.7600021362304700,22.6424007415771500,35.3180007934570300,242.2317047119140600,82.5986633300781200,22.6162395477294920,28.5490303039550780,140,132,93,85,59,15173,2164471350,2171145508,2177941906,2148598921,2154930514,2157666733,2160158089,2148331053,1008,2,15,2203
1344639503,5804,97.0400009155273400,22.7012996673584000,35.3185997009277340,243.1627960205078000,80.7584762573242200,22.6729507446289060,28.4843597412109380,99,128,91,85,60,15183,2165845202,2172709028,2179390656,2148669942,2155625490,2158516315,2160950601,2148415378,594,2,15,48573
1344639570,5810,95.4199981689453100,22.7084999084472660,35.3199996948242200,244.1044006347656200,79.7600631713867200,22.7037200927734380,28.4297008514404300,98,129,90,83,59,15191,2167774180,2175161298,2182010797,2148765760,2156515081,2159636534,2162039186,2148523830,3144,2,16,5445
1344639673,5812,93.3600006103515600,22.7198009490966800,35.3190002441406250,245.0592956542968800,79.3022537231445300,22.7178401947021500,28.3817405700683600,93,131,94,84,59,15193,2170460178,2178279808,2184923392,2148892516,2157999826,2161479497,2163722761,2148693147,2504,2,16,15589
1344639764,5809,90.8399963378906200,22.7728004455566400,35.3165016174316400,245.4730072021484400,77.4497680664062500,22.7749500274658200,28.3402309417724600,88,129,93,85,61,15197,2174465709,2182968155,2189544731,2149127213,2160093778,2164047030,2166000667,2148930496,2640,2,16,49336
1344639819,5810,88.8099975585937500,22.8157005310058600,35.3148002624511700,246.2416992187500000,76.1974105834961000,22.8135700225830080,28.2907009124755860,86,126,93,85,59,15191,2177331885,2185951442,2192042889,2149309988,2161893037,2166209206,2167834605,2149111506,3127,2,16,11999
1344639874,5805,86.9100036621093800,22.8433990478515620,35.3143997192382800,247.0500946044922000,75.3918533325195300,22.8384208679199220,28.2451305389404300,83,124,92,84,59,15195,2181073490,2190179913,2196091830,2149507986,2163995977,2168771126,2170039405,2149329289,2902,2,16,18293
1344639929,5807,85.0000000000000000,22.8581008911132800,35.3152999877929700,247.8762054443359400,74.7518920898437500,22.8581504821777340,28.2011108398437500,79,126,94,84,60,15200,2184301101,2193434011,2198732333,2149731017,2166050112,2171107693,2171852790,2149527030,2454,2,16,60340
1344639984,5805,82.9800033569336000,22.9171009063720700,35.3152008056640600,248.5532989501953000,72.7063598632812500,22.9212608337402340,28.1461906433105470,78,125,95,85,60,15197,2188372818,2197611136,2202358793,2149974317,2168660644,2174059794,2174167716,2149765494,2344,2,16,62963
1344640063,5803,79.5299987792968800,22.9682006835937500,35.3153991699218750,250.3737945556640600,70.9756393432617200,22.9746608734130860,28.0460395812988280,75,126,93,83,59,15195,2197846683,2207719241,2211983204,2150667172,2174387126,2180523501,2179304137,2150339373,2204,2,15,19415
1344640118,5810,76.2500000000000000,23.1513004302978500,35.2999000549316400,250.1902008056640600,64.9847869873046900,23.1596202850341800,27.9794006347656250,73,124,91,85,60,15193,2207192429,2217284205,2221022811,2151500644,2180222838,2187046729,2184524964,2150950829,1528,2,15,44970
1344640173,5806,73.2200012207031200,23.4377002716064450,35.2799987792968750,249.8506927490234400,56.6269111633300800,23.4179096221923830,27.8904399871826170,70,128,94,84,59,15183,2215368155,2225612114,2229018514,2152336521,2185174180,2192343716,2188653293,2151414089,318,3,16,58357
1344640228,5808,70.7900009155273400,23.5601997375488280,35.2769012451171900,250.0337066650390600,52.7266387939453100,23.5385494232177730,27.8344707489013670,70,127,94,85,59,15175,2220067794,2229288484,2231497408,2152927451,2189501696,2196534509,2191555885,2151782500,3563,3,16,19548
1344640283,5809,68.5899963378906200,23.6163997650146500,35.2761993408203100,250.1412963867187500,50.4850997924804700,23.6079101562500000,27.8022193908691400,69,133,95,87,56,15177,2227748544,2236805705,2238218294,2153714477,2194975433,2202314468,2196095414,2152338441,95,3,15,35965
1344640338,5810,66.4499969482421900,23.7283992767334000,35.2690010070800800,250.0726013183593800,47.2698211669921900,23.7074508666992200,27.7653598785400400,68,130,95,85,58,15172,2235420681,2244995300,2246624932,2154927186,2199503606,2206854308,2199451958,2152842002,3,3,15,60091
1344640396,5809,64.4400024414062500,23.8176994323730470,35.2676010131835940,249.9259033203125000,44.0051689147949200,23.8085708618164060,27.7314090728759770,66,130,94,86,57,15166,2240762678,2249321280,2249654802,2155495506,2205109065,2212628708,2203781001,2153376941,301,2,16,54079
1344640451,5808,62.9599990844726560,23.9612007141113280,35.2641983032226560,249.7375946044922000,40.2743492126464840,23.9241790771484380,27.6935901641845700,66,130,93,86,56,15169,2244852141,2252594971,2251999579,2156119853,2209339638,2216745344,2206739629,2153789019,613,2,16,39982
1344640542,5809,61.8499984741210940,24.0846996307373050,35.2616996765136700,249.6239013671875000,35.9019088745117200,24.0597591400146500,27.6446399688720700,66,131,98,88,58,15164,2251345069,2259698230,2259201289,2157112832,2212690724,2220067099,2209267904,2154135058,339,2,16,1759
1344640860,5811,58.9500007629394500,24.3971996307373050,35.2640991210937500,249.0699005126953000,25.0128593444824220,24.3978404998779300,27.5347309112548830,64,130,95,87,56,15156,2266113773,2273352822,2270944173,2158954550,2228492342,2234605531,2218719652,2155332150,1058,2,16,21919
1344640927,5809,56.9900016784668000,24.5382995605468750,35.2551002502441400,248.6190032958984400,21.7780094146728500,24.4983901977539060,27.5144195556640620,64,130,97,86,57,15156,2274688018,2282277092,2279749595,2161149138,2237430400,2243143488,2224826212,2156321124,1473,2,16,64134
1344640994,5809,55.4500007629394500,24.6299991607666000,35.2641983032226560,248.0592956542968800,17.8297405242919920,24.6212005615234380,27.4900493621826170,62,131,95,88,58,15148,2280420964,2287906468,2285032045,2162187053,2243306688,2248748086,2228784969,2156874057,1393,2,16,43527
1344641085,5811,53.1100006103515600,24.8304004669189450,35.2518997192382800,246.3710021972656200,11.4991998672485350,24.8182792663574220,27.4852504730224600,60,132,96,86,61,15154,2294100681,2301110756,2297601654,2165059520,2255561408,2259657938,2235942701,2158080932,1080,1,16,62160
1344641152,5809,51.1899986267089840,25.0415000915527340,35.2584991455078100,244.6902008056640600,4.7314081192016600,25.0292091369628900,27.4752693176269530,61,129,96,86,55,15153,2300149202,2306681261,2302989184,2167071634,2267296292,2270660882,2243706422,2159089398,332,2,15,43275
1344641255,5805,49.8800010681152340,25.2872009277343750,35.2849998474121100,242.7003936767578000,-2.7932701110839844,25.2640590667724600,27.4700508117675780,59,131,95,87,57,15161,2305861568,2312781842,2308898971,2168903158,2275319625,2276919177,2247066742,2159335972,3343,2,16,21415
1344641465,5808,47.2299995422363300,25.3943004608154300,35.2629013061523440,240.2810974121093800,-7.1222400665283200,25.3993091583251950,27.5236091613769530,56,128,90,87,59,15164,2319365421,2325189275,2319703232,2172517494,2305328667,2302280393,2262413174,2161567936,3273,2,16,58029
1344641532,5810,45.0400009155273440,25.4225997924804700,35.2607002258300800,239.9479064941406200,-8.1460380554199220,25.4313201904296880,27.5256805419921880,55,126,95,86,54,15157,2330562029,2336524708,2330401920,2175990838,2320138852,2313564580,2268268864,2162627318,3233,2,16,18670
1344641587,5808,43.0099983215332000,25.4312992095947270,35.2591018676757800,239.7545928955078000,-8.4620294570922850,25.4412002563476560,27.5303897857666000,55,127,93,85,54,15153,2343046098,2348976877,2343205202,2181352502,2340105325,2332229668,2281044836,2164874660,3433,2,16,12530
1344641642,5804,40.7799987792968750,25.4340000152587900,35.2549018859863300,239.8544006347656200,-8.6029615402221680,25.4456005096435550,27.5242404937744140,55,125,95,86,56,15163,2371874560,2382135305,2379351762,2191215323,2363046354,2352262857,2294843611,2167750875,3528,2,16,54229
1344641721,5808,36.9599990844726560,25.4790992736816400,35.2644996643066400,239.6419067382812500,-10.1192903518676760,25.4930191040039060,27.5152606964111330,54,126,92,85,57,15162,2383314413,2391050816,2386875556,2199859602,2400242925,2383779721,2314879241,2171825856,3570,2,16,51331
1344641776,5807,33.7400016784668000,25.5312004089355470,35.2669982910156250,239.4010925292968800,-11.6972703933715820,25.5423793792724600,27.5065193176269530,53,127,92,86,55,15156,2393736402,2401181549,2397834642,2211178313,2422903186,2402284544,2325963657,2174656438,100,2,15,333
1344641831,5806,30.6200008392334000,25.6707000732421880,35.2611999511718750,238.3110961914062500,-16.2137908935546880,25.6837501525878900,27.4997692108154300,53,124,91,87,52,15158,2412861467,2420671305,2417582262,2224909714,2457124461,2431297636,2344939446,2179458422,377,2,15,19292
1344641886,5812,27.9099998474121100,25.7241992950439450,35.2602005004882800,237.8327026367187500,-17.9211101531982420,25.7372207641601560,27.5001106262207030,53,122,89,85,59,15162,2432870464,2443181851,2441840960,2241022290,2492056411,2461306358,2364615963,2184544722,3569,1,15,38516
1344641941,5807,25.3299999237060550,25.8507003784179700,35.2336997985839840,236.7322998046875000,-21.8392791748046880,25.8600101470947270,27.5013809204101560,53,125,94,87,54,15158,2455092205,2468041901,2468287305,2261195940,2516154313,2480515446,2376461028,2188881206,3298,3,17,5028
